AirNav   ProFlight Series 2 Aviation Headset
 
 901 users online  

PN79 Passavant Hospital Heliport
Pittsburgh, Pennsylvania, USA

GOING TO PITTSBURGH?


FAA INFORMATION EFFECTIVE 18 JUNE 2020

Location

FAA Identifier: PN79
Lat/Long: 40-34-24.1400N 080-00-42.8100W
40-34.402333N 080-00.713500W
40.5733722,-80.0118917
(estimated)
Elevation: 1330 ft. / 405 m (estimated)
Variation: 07W (1985)
From city: 11 miles NE of PITTSBURGH, PA
Time zone: UTC -4 (UTC -5 during Standard Time)
Zip code: 15333

Heliport Operations

Heliport use: Private use, MEDICAL USE.
Activation date: 01/1975
Control tower: no
ARTCC: CLEVELAND CENTER
FSS: ALTOONA FLIGHT SERVICE STATION
Attendance: CONTINUOUS
Wind indicator: yes
Segmented circle: no
Lights: SS-SR

Heliport Communications

WX AWOS-A at 42PN (7 nm S): PHONE 412-442-2213
WX ASOS at PIT (11 nm SW): PHONE 412-472-0145
WX AWOS-3PT at BTP (13 nm N): 121.450 (724-586-6434)
WX ASOS at AGC (14 nm S): 120.55 (412-466-8968)
WX AWOS-3PT at PJC (15 nm NW): 118.45 (724-452-5304)

Nearby radio navigation aids

VOR radial/distance  VOR name  Freq  Var
EWCr157/17.6ELLWOOD CITY VOR/DME115.8008W
AGCr013/17.7ALLEGHENY VOR/DME110.0009W
HLGr061/31.6WHEELING VOR/DME112.2007W

 
NDB name  Hdg/Dist  Freq  Var  ID
CASTLE155/32.627209WUCP ..- -.-. .--.

Heliport Services

Airframe service: NONE
Powerplant service: NONE

Runway Information

Helipad H1

Dimensions: 45 x 45 ft. / 14 x 14 m
Surface: concrete
Runway edge lights: PERI
Latitude: 40-34.402333N
Longitude: 080-00.713500W
Elevation: 1330.0 ft.
Traffic pattern: leftleft

Heliport Ownership and Management from official FAA records

Ownership: Privately-owned
Manager: WALTER O GOEHRING
9100 BABCOCK BLVD
PITTSBURGH, PA 15237
Phone 412-367-6700

Additional Remarks

FOR CD CTC CLEVELAND ARTCC AT 440-774-0490.

Instrument Procedures

There are no published instrument procedures at PN79.

Some nearby airports with instrument procedures:

KPIT - Pittsburgh International Airport (11 nm SW)
KBTP - Pittsburgh/Butler Regional Airport (13 nm N)
KAGC - Allegheny County Airport (14 nm S)
KPJC - Zelienople Municipal Airport (15 nm NW)
G05 - Finleyville Airpark (20 nm S)
 
Loc | Ops | Rwys | IFR | FBO | Links
Com | Nav | Svcs | Stats | Notes
Area around PN79 (Passavant Hospital Heliport)
 
Road maps at: MapQuest Bing Google
 
Aerial photo
No photo
 
Sectional chart

 
Airport distance calculator
Flying to Passavant Hospital Heliport? Find the distance to fly.

From to PN79

Sunrise and sunset
Times for 07-Jul-2020
 Local
(UTC-4)
 Zulu
(UTC)
Morning civil twilight05:2509:25
Sunrise05:5809:58
Sunset20:5200:52
Evening civil twilight21:2501:25

Current date and time
Zulu (UTC)  08-Jul-2020 01:51:01
Local (UTC-4)  07-Jul-2020 21:51:01
 
METAR
KBTP 
12nm N 
080056Z AUTO 16003KT 9SM -RA BKN090 BKN120 21/21 A3004 RMK AO2 SLP170 P0003 T02110206
KPIT 
12nm W 
080051Z 16006KT 10SM FEW070 BKN130 OVC200 22/20 A3003 RMK AO2 RAE43 SLP167 T02170200 PNO VISNO SE $
KAGC 
14nm S 
080053Z 00000KT 10SM CLR 23/19 A3003 RMK AO2 SLP163 T02330194
KBVI 
21nm NW 
080135Z AUTO 15009KT 5SM BR SCT003 SCT110 22/20 A3002 RMK AO2 T02150203
KP53 
23nm S 
080056Z AUTO 00000KT 20/18 A2993 RMK AO1 SLP133 T02000183
TAF
KPIT 
12nm W 
072055Z 0721/0824 22005KT P6SM VCTS OVC050CB TEMPO 0721/0724 VRB20G30KT 1SM +TSRA OVC025CB FM080000 18004KT P6SM BKN100 FM080600 00000KT P6SM SCT200 FM081800 25003KT P6SM VCTS SCT100CB
KAGC 
14nm S 
071954Z 0720/0818 23005KT P6SM VCTS BKN050CB TEMPO 0721/0724 5SM TSRA FM080000 17004KT P6SM BKN100 FM080600 00000KT P6SM SCT200
NOTAMs
Click for the latest NOTAMs
NOTAMs are issued by the DoD/FAA and will open in a separate window not controlled by AirNav.

 

 
 

Would you like to see your business listed on this page?

 If your business provides an interesting product or service to pilots, flight crews, aircraft, or users of the Passavant Hospital Heliport, you should consider listing it here.  To start the listing process, click on the button below
 
Add a business
 

Other Pages about Passavant Hospital Heliport

Update a link
 
Copyright © AirNav, LLC. All rights reserved. Privacy Policy  Contact